Flag for Germany Weather past 2 weeks in Bremerhaven, Bremen, Germany

Now
46 °F

Partly sunny.


Feels Like: 39 °F
Forecast: 38 / 43 °F
Wind: 17 mph from West

Location: Nordholz

Current Time: Mar 1, 2015 at 4:31:46 PM

Latest Report: Mar 1, 2015 at 3:20 PM


Visibility: N/A

Pressure: 29.45 "Hg

Humidity: 71%

Dew point: 37 °F

Location of BremerhavenLocation

Historic Weather in Bremerhaven — Graph

°F

Bremerhaven temperature yesterday

Maximum temperature yesterday: 45 °F (at 1:20 PM)
Minimum temperature yesterday: 30 °F (at 5:20 AM)
Average temperature yesterday: 37 °F

Past Weeks' High & Low Weather Summary

 TemperatureHumidityPressure
High46 °F (Feb 26, 1:20 PM)100% (Feb 17, 4:20 AM)30.66 "Hg (Feb 17, 4:20 AM)
Low27 °F (Feb 17, 6:20 AM)57% (Feb 28, 4:20 PM)29.24 "Hg (Feb 21, 8:20 AM)
Average38 °F87%29.91 "Hg
* Reported Feb 14 3:20 PM — Mar 1 3:20 PM, Bremerhaven, Weather by CustomWeather, © 2015

Note: Actual official high and low records may vary slightly from our data, if they occured in-between our weather recording intervals... More about our weather records

Advertising

Bremerhaven weather history for previous 24 hours

 ConditionsComfort  
Time TempWeatherWind HumidityBarometerVisibility
3:20 PM
Sun, Mar 1
46 °FPartly sunny.17 mph71%29.45 "HgN/A
2:20 PM46 °FScattered showers. Scattered clouds.21 mph71%29.45 "HgN/A
1:20 PM46 °FSprinkles. Broken clouds.20 mph71%29.42 "Hg3 mi
12:20 PM45 °FPartly sunny.15 mph81%29.42 "HgN/A
11:20 AM46 °FPartly sunny.16 mph87%29.42 "HgN/A
10:20 AM43 °FBroken clouds.15 mph93%29.39 "HgN/A
9:20 AM41 °FRain. Partly sunny.15 mph93%29.39 "Hg4 mi
8:20 AM39 °FPartly sunny.17 mph93%29.39 "HgN/A
7:20 AM39 °FDrizzle. Fog.15 mph93%29.42 "Hg3 mi
6:20 AM37 °FPassing clouds.17 mph93%29.42 "Hg5 mi
5:20 AM37 °FPartly cloudy.16 mph93%29.45 "HgN/A
4:20 AM39 °FPassing clouds.14 mph81%29.50 "HgN/A
3:20 AM41 °FPartly cloudy.15 mph66%29.53 "HgN/A
2:20 AM41 °FPassing clouds.17 mph61%29.56 "HgN/A
1:20 AM41 °FPassing clouds.16 mph61%29.62 "HgN/A
12:20 AM41 °FPartly cloudy.17 mph61%29.65 "HgN/A
11:20 PM
Sat, Feb 28
39 °FPartly cloudy.16 mph65%29.71 "HgN/A
10:20 PM41 °FPassing clouds.15 mph61%29.74 "HgN/A
9:20 PM39 °FPartly cloudy.14 mph65%29.80 "HgN/A
8:20 PM39 °FPassing clouds.14 mph70%29.83 "HgN/A
7:20 PM39 °FPassing clouds.12 mph65%29.86 "HgN/A
6:20 PM41 °FPassing clouds.10 mph66%29.86 "HgN/A
5:20 PM43 °FPassing clouds.13 mph61%29.89 "HgN/A
4:20 PM45 °FScattered clouds.13 mph57%29.92 "HgN/A
Weather by CustomWeather, © 2015

See weather overviewHow to use our weather pages